Regional Weather Roundup
Issued by NWS

Home | Current Version | Previous Version | Text Only | Print | Product List | Glossary Off
Versions: 1 2 3 4 5 6 7 8 9 10 11 12 13 14 15 16 17 18 19 20 21 22 23 24 25 26 27 28 29 30 31 32 33 34 35 36 37 38 39 40 41 42 43 44 45 46 47 48 49 50

000
ASUS43 KBIS 302002
RWRND

NORTH DAKOTA REGIONAL WEATHER ROUNDUP
NATIONAL WEATHER SERVICE BISMARCK ND
300 PM CDT SAT MAY 30 2015

NOTE: "FAIR" INDICATES FEW OR NO CLOUDS BELOW 12,000 FEET WITH NO
SIGNIFICANT WEATHER AND/OR OBSTRUCTIONS TO VISIBILITY.


NDZ001>003-009>011-017-302100-
NORTHWEST NORTH DAKOTA

CITY           SKY/WX    TMP DP  RH WIND       PRES   REMARKS
WILLISTON      MOSUNNY   61  34  36 SE20G25   30.22F
MINOT          SUNNY     55  29  36 E14G21    30.31F
MINOT AFB      SUNNY     56  32  40 SE12      30.30F
$$

NDZ018>021-031>035-040>046-302100-
SOUTHWEST NORTH DAKOTA

CITY           SKY/WX    TMP DP  RH WIND       PRES   REMARKS
BISMARCK       SUNNY     57  34  41 E12       30.32F
DICKINSON      SUNNY     59  37  44 S17G31    30.20F
GARRISON         N/A     57  32  38 E15G22    30.30F
HETTINGER ARPT MOSUNNY   58  39  49 SE20G26   30.23F
$$

NDZ004>008-012>016-024-026-027-054-302100-
NORTHEAST NORTH DAKOTA

CITY           SKY/WX    TMP DP  RH WIND       PRES   REMARKS
GRAND FORKS    MOSUNNY   54  30  40 NE9       30.36F
GRND FRKS AFB  SUNNY     53  27  37 VRB3      30.36F
DEVILS LAKE    SUNNY     52  25  35 E7G16     30.35S
$$

NDZ022-023-025-028>030-036>039-047>053-302100-
SOUTHEAST NORTH DAKOTA

CITY           SKY/WX    TMP DP  RH WIND       PRES   REMARKS
FARGO          SUNNY     56  35  45 N9        30.33F
JAMESTOWN      SUNNY     53  32  44 MISG      30.34F
$$



USA.gov is the U.S. government's official web portal to all federal, state and local government web resources and services.